GFSGL_850_rhum_123.txt.gz
RH
98 98 96 99 100 99 97 93 98 100 95 96 96 99 97 99 100 100 100 100 99 98 93 77 81 83 77 76 76 73 68 65 72 91 82 82 86 84 86 85 96 98 93
100 98 97 98 100 98 99 96 99 100 93 95 95 100 99 98 98 98 98 100 99 97 75 91 82 87 89 84 76 69 67 67 60 74 82 92 97 100 99 96 100 100 99
98 99 98 99 100 99 96 97 89 89 91 98 95 99 100 99 99 100 97 98 100 82 89 94 85 86 88 84 87 73 70 69 64 76 83 94 86 100 99 100 100 100 100
93 99 98 99 100 100 98 91 95 93 94 98 95 99 99 100 100 99 100 100 96 86 93 100 93 93 81 81 71 65 67 83 83 79 86 93 99 99 100 100 100 100 99
89 98 98 98 100 100 96 90 94 92 92 90 90 91 94 98 100 100 99 100 100 99 100 100 100 96 92 88 76 80 71 86 100 95 89 98 100 100 100 100 100 100 95
79 97 98 98 100 100 95 98 91 97 96 94 100 99 98 95 92 96 96 100 100 100 99 100 98 98 98 98 92 79 94 100 100 98 99 100 100 100 100 100 99 95 50
81 85 99 98 99 99 93 99 98 98 93 92 95 96 98 94 88 95 83 99 100 100 100 100 100 100 100 99 97 94 100 100 100 100 100 100 100 100 99 86 56 39 33
80 77 99 100 99 96 95 100 100 94 92 94 95 95 96 90 91 99 100 100 100 100 100 100 100 99 99 98 100 100 100 100 100 100 100 100 100 91 53 40 55 84 80
88 76 98 100 100 95 99 100 97 96 96 97 100 97 95 90 99 100 100 100 100 100 100 100 100 100 100 100 100 100 100 100 100 100 99 94 68 67 76 93 88 49 21
97 77 97 100 100 100 100 99 100 100 99 97 100 99 99 93 97 99 100 99 99 98 100 100 100 100 100 100 100 100 100 100 98 92 79 80 92 95 58 32 37 7 8
98 92 91 100 99 93 98 100 100 100 100 100 100 100 100 100 98 100 100 100 100 100 100 100 100 100 100 100 100 100 99 91 75 67 78 87 67 52 32 6 5 6 10
100 89 85 94 100 99 97 100 100 100 100 100 100 100 100 100 100 100 100 100 100 95 99 100 100 100 100 100 98 89 74 74 81 68 62 67 23 6 7 8 8 8 9
100 92 98 100 100 100 100 100 100 100 100 100 100 100 100 100 100 100 100 100 100 100 100 100 100 95 73 62 71 82 77 61 80 89 23 9 8 8 9 10 10 10 10
100 98 100 100 100 100 100 100 100 100 100 100 100 100 100 100 100 100 100 100 100 100 100 94 69 65 81 91 95 95 95 69 17 10 11 14 15 15 15 14 14 15 32
100 100 100 100 100 100 100 100 100 100 100 99 100 100 100 100 100 100 100 100 100 100 97 90 92 96 96 96 91 47 14 13 12 12 13 14 15 17 18 18 20 40 85
98 99 98 99 99 98 100 100 100 100 100 100 100 100 99 99 100 100 100 99 99 98 97 97 96 96 92 40 15 14 13 11 11 11 13 15 17 22 28 29 29 38 69
98 98 98 99 99 100 99 98 100 100 100 100 100 100 100 97 95 97 97 96 96 96 95 95 95 69 15 14 14 11 11 12 12 13 14 17 21 24 36 40 41 35 29
98 97 97 97 97 97 97 97 97 97 95 95 97 96 98 97 97 96 96 96 95 96 95 90 38 29 33 18 12 11 13 15 17 16 16 16 19 28 54 75 76 43 42
97 97 96 96 96 96 96 96 96 95 96 95 96 96 98 97 97 96 96 96 94 78 59 47 39 23 25 19 15 16 18 19 18 18 18 18 20 43 44 54 100 70 84
96 96 96 96 96 96 96 95 95 95 96 95 95 96 96 96 95 95 95 83 42 48 49 40 33 28 22 20 16 16 18 20 21 23 22 22 25 39 78 84 82 92 100
96 96 96 96 95 96 95 96 96 95 95 96 97 96 97 94 87 54 40 36 44 43 31 29 27 22 21 20 39 50 44 28 27 27 29 26 30 53 40 82 80 100 100
97 96 95 96 95 95 95 95 96 95 94 95 96 95 74 29 29 38 64 58 44 37 36 22 20 21 30 42 40 36 28 24 26 28 28 30 33 53 36 59 95 100 100
95 95 95 96 96 96 96 95 95 95 93 77 53 45 36 35 38 37 27 22 29 30 28 22 22 22 22 27 33 31 33 29 26 28 30 30 31 35 32 67 91 100 100
96 95 95 96 96 96 95 95 96 93 77 55 37 25 23 28 33 28 25 24 20 20 20 20 21 21 21 23 24 25 26 27 28 29 30 31 33 34 34 39 58 98 94
96 96 96 96 96 95 95 95 93 78 50 36 31 24 28 25 24 21 19 19 20 21 22 22 23 24 24 26 26 27 31 31 32 32 32 34 35 36 38 41 47 58 79
96 96 93 85 87 76 59 39 34 32 26 25 25 26 23 20 20 22 22 22 23 23 24 24 25 27 28 29 29 32 32 33 33 34 36 38 39 41 45 53 49 50 68

GFSGL_850_rhum_126.txt.gz
RH
77 91 99 91 88 100 100 99 88 88 93 94 90 90 90 89 89 94 100 100 100 99 97 96 92 84 88 65 62 64 69 70 81 92 93 97 100 97 84 80 81 80 84
82 76 94 91 90 96 100 99 100 91 87 97 98 90 90 97 92 98 100 100 100 99 98 100 92 86 75 72 67 64 65 78 66 65 88 90 91 86 86 90 88 97 99
68 77 91 96 96 91 100 100 98 99 90 100 99 91 92 98 91 98 100 99 100 98 99 100 99 91 81 82 70 69 69 80 69 60 70 85 85 92 96 100 98 98 100
66 74 92 100 100 92 100 100 100 99 85 88 90 90 92 96 87 98 100 96 100 100 100 98 96 95 81 86 80 72 69 74 74 75 80 87 92 91 96 87 93 100 100
72 73 83 98 100 100 100 100 100 97 84 90 96 100 100 98 96 92 98 100 100 100 100 100 100 83 90 86 66 66 67 76 74 72 95 96 96 85 82 86 100 100 100
79 71 75 88 100 99 99 100 98 94 87 94 92 98 100 100 100 97 99 99 100 100 100 100 99 86 99 100 86 80 83 81 78 63 65 71 81 94 100 100 100 100 100
87 72 74 87 98 100 99 100 97 98 94 94 94 98 98 99 100 100 100 100 100 100 100 100 92 98 100 100 100 99 90 86 86 85 78 97 100 100 100 100 100 99 74
96 84 76 88 98 100 100 100 100 98 99 94 100 99 100 95 97 99 100 100 100 100 100 100 98 100 100 100 100 100 99 99 97 94 99 100 100 100 100 98 78 65 89
99 98 85 85 96 100 100 100 100 100 99 97 99 100 92 96 94 99 99 100 100 100 100 100 100 100 100 100 100 100 100 100 100 100 100 100 100 100 82 87 95 95 97
98 95 93 88 95 99 100 100 99 98 99 100 100 100 92 97 100 98 100 99 99 100 100 100 100 100 100 100 100 100 100 100 100 100 100 99 97 95 97 95 97 94 57
97 96 94 86 96 98 100 100 100 99 100 100 100 100 98 100 100 99 100 99 98 100 99 100 100 100 100 100 100 100 100 100 99 99 98 96 91 83 93 91 40 10 7
100 96 92 90 97 97 96 100 100 100 100 100 100 100 100 100 100 100 100 100 100 99 99 100 99 100 100 100 100 100 100 100 91 83 80 77 85 84 51 8 6 6 6
99 99 98 96 100 100 100 100 100 100 100 100 100 100 100 100 100 100 100 100 100 100 100 100 100 100 100 100 100 97 91 80 76 68 73 89 62 12 7 7 7 8 9
100 100 98 99 98 100 100 99 99 99 100 100 100 100 100 100 100 100 100 100 100 100 100 100 100 100 98 96 96 76 57 64 85 94 69 12 8 9 8 10 10 11 12
100 100 100 100 100 100 100 98 100 100 100 99 99 99 98 99 99 100 99 99 100 100 99 97 90 85 86 75 71 86 96 92 47 10 8 10 11 12 13 12 12 18 22
99 97 100 100 100 99 100 97 98 100 100 100 100 100 100 100 100 100 100 99 100 100 92 84 88 94 96 97 96 95 53 13 11 11 10 11 14 16 15 16 16 16 20
98 98 98 98 97 97 97 99 96 100 100 100 98 100 100 100 100 100 100 100 97 94 93 96 95 96 96 96 50 21 18 16 12 11 12 15 16 16 21 24 22 18 21
97 97 98 98 96 96 96 96 98 97 100 97 99 100 99 99 97 97 98 98 97 97 96 96 96 95 50 17 13 13 12 13 14 13 13 16 21 21 26 24 27 30 39
96 96 96 98 95 95 96 95 96 95 96 96 96 96 96 96 96 96 96 96 96 96 96 95 95 66 20 15 12 12 12 13 13 12 14 16 16 20 23 24 31 36 40
96 96 95 96 96 95 96 95 95 95 96 96 96 96 95 95 96 96 96 96 95 96 95 71 34 23 15 12 12 16 16 13 13 14 15 16 18 21 25 32 37 42 49
96 96 96 95 95 95 96 96 96 96 96 95 96 96 95 95 96 95 95 95 95 68 33 28 25 21 25 25 22 17 14 16 18 15 18 21 20 25 28 35 43 48 54
96 95 95 95 96 96 95 95 94 94 95 95 96 95 95 95 95 95 89 64 47 37 32 26 28 28 25 24 24 23 20 19 18 23 20 22 24 25 30 38 38 44 48
95 95 95 95 95 95 95 96 95 95 95 95 96 95 95 78 45 49 50 45 38 33 31 22 17 21 29 30 26 19 17 20 22 21 22 23 25 28 30 31 34 38 43
95 95 95 96 96 95 95 96 96 96 95 95 93 86 72 53 40 38 33 30 26 24 24 23 21 22 22 19 18 21 22 21 21 22 26 28 27 28 30 31 33 35 40
97 96 96 96 97 97 96 96 96 94 85 51 32 32 35 33 30 28 27 25 22 19 18 18 19 19 20 21 24 23 22 24 25 27 29 30 31 33 34 36 36 35 38
96 96 95 96 96 96 95 95 93 86 78 66 43 32 30 27 25 24 22 20 18 18 19 21 22 22 21 22 23 25 26 26 28 28 30 32 34 34 35 36 40 41 44

GFSGL_850_rhum_129.txt.gz
RH
46 48 62 70 86 91 93 100 99 100 92 91 94 93 93 99 100 96 89 87 100 99 99 100 100 100 94 98 92 75 73 76 89 97 97 99 100 100 98 98 99 100 94
51 47 49 68 76 89 90 92 100 100 97 93 94 96 89 85 84 88 90 91 93 97 100 100 100 100 97 92 100 92 76 78 75 86 100 100 100 100 100 99 100 98 87
55 51 50 59 84 89 84 93 98 99 100 99 100 91 87 86 83 86 88 94 96 92 99 100 98 100 94 95 100 100 75 80 75 69 84 99 100 100 100 100 99 99 99
55 47 52 61 71 95 90 96 90 100 100 100 100 100 82 80 85 90 92 94 99 99 98 100 99 99 93 92 96 100 76 71 78 78 79 97 99 99 100 100 100 100 100
53 50 51 63 68 77 100 98 95 98 100 98 95 98 82 82 88 94 100 100 99 97 98 100 100 100 99 98 93 86 99 77 75 85 81 93 88 94 98 97 100 100 100
55 55 56 66 68 72 93 98 100 98 100 100 100 93 87 89 90 89 96 100 93 99 98 100 99 100 100 100 93 94 98 84 87 80 83 90 82 88 94 96 98 100 100
62 62 66 67 72 71 86 100 100 99 99 100 92 93 92 99 97 99 93 100 100 100 100 100 100 100 100 100 100 92 96 94 75 74 72 89 81 82 71 77 100 100 100
77 75 74 76 84 73 82 100 100 100 100 93 92 90 88 91 98 98 99 100 100 100 100 100 100 100 100 100 96 91 100 89 81 93 97 97 92 92 91 100 100 100 98
100 95 86 82 90 84 80 99 100 100 100 99 91 93 87 94 100 100 100 100 100 100 100 100 100 100 100 100 99 100 100 100 100 100 98 98 97 99 100 100 99 99 90
98 97 93 90 93 92 85 96 99 100 100 100 98 97 98 100 99 100 99 100 100 100 99 100 100 100 100 100 100 99 100 100 100 99 100 100 99 100 100 99 96 95 99
94 87 84 87 97 92 84 97 96 100 100 100 100 100 99 99 92 100 99 100 99 98 99 99 100 100 100 100 100 100 100 100 100 100 100 100 100 98 98 99 98 98 90
94 92 83 92 98 92 84 98 100 100 100 100 99 100 100 100 100 99 97 100 100 97 98 99 100 100 100 100 100 100 100 100 100 100 100 98 97 97 97 96 79 16 8
92 96 94 98 100 94 92 98 100 100 100 100 99 100 99 100 100 100 100 100 100 100 100 100 100 100 100 100 100 100 100 100 100 99 96 95 95 80 36 12 6 6 5
89 92 97 100 99 96 99 99 100 100 99 100 100 99 100 100 99 99 100 100 100 100 100 100 100 100 100 100 100 100 100 98 94 88 90 95 86 24 7 7 6 7 8
92 93 97 100 99 99 98 100 100 100 99 97 100 99 98 99 99 100 99 98 99 100 99 100 100 100 100 100 96 86 87 93 95 96 93 55 10 9 9 11 10 10 8
95 95 97 98 99 100 100 100 100 100 100 98 98 100 100 100 100 100 100 100 100 100 100 100 100 100 98 93 84 88 97 96 90 42 12 9 9 9 9 11 10 12 14
95 95 96 97 97 98 98 99 98 98 99 99 98 99 98 99 100 100 100 100 100 100 100 100 100 94 80 84 95 96 94 62 22 9 9 11 10 11 11 13 16 15 15
96 96 95 96 96 96 96 96 96 96 97 95 98 97 97 99 99 100 100 100 100 100 98 97 96 96 96 96 96 93 40 15 15 13 13 13 13 14 17 18 20 17 17
95 95 95 96 96 95 95 95 95 96 96 96 95 96 97 99 98 97 98 97 95 96 95 95 95 95 95 95 81 24 16 16 14 13 14 16 17 15 17 20 20 19 21
95 95 96 96 96 96 95 95 95 96 96 96 96 96 96 95 96 95 96 96 96 96 95 95 95 95 94 33 16 16 16 15 15 14 14 15 15 16 16 18 20 19 20
95 96 96 96 95 96 96 96 95 94 95 95 95 96 95 95 96 95 96 96 96 96 95 95 59 20 15 14 16 13 13 14 16 16 16 16 16 16 16 17 18 20 22
95 96 96 95 95 95 96 96 96 94 95 95 96 96 96 96 95 95 95 95 96 84 39 24 27 24 19 16 15 14 15 16 19 18 17 17 17 17 18 20 21 21 25
94 95 95 96 95 95 95 95 96 95 95 96 95 95 96 95 94 95 96 86 43 28 35 28 18 17 19 19 21 20 18 17 17 18 16 18 20 21 20 21 22 27 30
95 94 95 95 95 96 96 95 96 96 96 96 95 96 96 96 94 93 61 42 34 32 29 23 22 20 22 23 21 19 19 18 20 22 23 22 22 23 26 28 29 29 29
95 94 95 95 95 95 95 95 95 96 95 95 95 94 93 81 59 48 39 35 33 32 30 27 26 25 22 20 21 22 22 23 23 21 22 24 25 26 28 29 31 33 35
95 95 94 95 95 95 95 95 95 95 95 88 66 44 39 41 39 36 33 28 25 23 22 22 21 22 22 23 22 21 19 20 22 22 24 26 28 30 31 33 35 37 38

GFSGL_850_rhum_132.txt.gz
RH
49 45 40 39 42 63 74 83 92 93 100 94 95 89 94 94 97 95 93 92 92 98 99 98 100 100 100 100 100 96 83 77 82 85 85 84 93 94 84 87 95 89 89
56 48 44 41 42 51 68 80 88 95 99 98 97 89 90 92 95 96 98 98 99 100 100 99 99 99 100 99 100 94 86 86 76 77 94 100 100 100 88 91 99 100 100
46 44 43 43 41 47 58 73 77 84 94 98 97 93 93 88 94 98 99 100 99 98 94 100 99 99 99 100 100 99 92 95 84 70 82 99 99 100 100 100 100 100 100
43 41 42 44 43 43 55 63 71 78 98 96 93 98 97 83 91 88 90 84 88 94 98 100 100 98 100 100 98 100 100 100 94 86 88 97 100 99 100 99 100 100 100
46 41 38 43 46 45 56 62 76 87 96 96 97 99 100 93 85 85 84 86 92 94 94 98 99 100 100 100 100 99 100 100 100 93 88 97 99 100 97 98 100 100 100
53 51 50 48 47 50 52 62 72 90 98 99 100 100 94 96 82 82 83 89 93 97 99 100 97 100 100 97 100 100 93 88 98 95 89 89 94 100 93 96 100 99 100
60 61 58 54 50 56 56 62 70 83 92 97 98 100 100 95 84 82 90 96 99 99 100 99 100 100 100 100 100 100 91 95 100 90 86 86 88 83 72 91 100 100 100
64 66 68 69 60 61 63 68 73 89 90 98 99 99 96 89 83 83 99 99 100 100 100 100 100 100 100 100 100 100 100 100 92 99 98 91 89 84 93 91 97 99 100
63 70 78 81 72 71 75 78 80 82 88 90 99 100 100 95 86 84 86 92 96 99 99 100 99 100 100 100 100 100 100 100 100 100 100 100 98 97 91 91 100 99 100
65 72 85 87 78 79 80 82 81 85 87 98 98 100 94 93 86 83 89 97 98 100 99 100 100 100 99 99 100 100 100 100 98 100 100 100 100 100 100 100 100 99 100
71 75 82 93 88 85 80 76 82 83 85 98 96 100 100 98 90 92 94 100 99 100 100 100 99 100 100 99 100 100 100 100 99 100 100 100 100 100 100 100 99 100 99
77 80 88 97 92 88 84 78 82 90 99 98 99 98 100 100 96 100 96 98 99 100 100 100 99 99 100 100 100 100 100 100 100 100 100 100 99 99 99 99 98 98 98
84 89 94 91 87 90 86 80 90 99 99 100 100 100 100 100 100 99 100 100 100 100 100 100 98 99 100 100 100 100 100 100 98 99 98 99 99 99 99 97 97 94 22
97 95 91 88 87 94 90 88 96 100 100 100 100 100 99 100 100 98 99 100 100 100 100 100 100 100 100 100 100 100 100 100 100 100 99 98 99 99 96 71 18 5 4
89 90 90 90 90 93 90 89 97 100 100 100 100 100 99 100 100 99 95 97 98 99 99 100 100 100 100 100 100 100 100 100 100 100 96 85 76 69 35 8 6 6 5
90 90 93 93 93 93 94 93 96 98 99 100 100 100 100 99 97 100 100 100 100 100 100 100 100 100 100 100 100 100 100 100 99 97 95 72 34 13 8 12 9 9 8
94 91 92 94 94 95 95 93 93 98 98 100 100 100 100 98 98 98 100 100 100 100 99 100 100 100 100 100 98 99 100 100 97 96 95 63 15 9 10 11 10 10 10
94 95 94 95 97 96 94 95 95 95 96 96 97 98 98 98 96 96 100 100 100 100 100 100 100 100 97 96 97 96 96 96 95 88 40 12 12 10 11 12 13 12 13
93 95 95 95 96 96 96 95 93 95 96 97 97 96 97 97 96 96 95 97 98 100 100 100 100 97 96 96 96 96 95 93 47 13 11 12 13 12 13 15 16 16 15
95 95 95 95 95 95 95 94 94 95 96 96 96 96 96 96 95 96 96 96 96 96 96 96 96 96 96 96 96 91 37 16 13 14 16 17 18 15 14 16 18 18 24
96 95 95 95 95 95 96 95 96 95 95 95 94 95 95 95 96 96 96 95 95 95 96 95 96 96 96 93 43 14 13 15 16 14 14 13 13 13 15 17 18 22 23
96 95 95 95 95 96 96 95 95 95 96 95 96 96 96 95 95 96 96 96 96 96 96 95 95 69 24 16 14 13 13 14 14 13 13 14 15 15 16 18 20 20 21
94 95 95 95 95 95 95 95 95 95 95 96 96 95 95 95 96 95 95 95 95 95 95 81 22 18 19 16 15 14 12 12 14 14 14 15 16 18 19 19 19 20 21
95 94 95 95 95 95 95 95 95 95 95 96 96 96 95 96 95 95 96 95 83 48 32 27 24 20 20 20 22 20 17 16 16 18 20 19 19 20 20 21 22 24 25
95 95 95 95 95 95 96 96 95 95 95 96 95 96 96 96 96 91 72 51 35 29 30 29 30 29 26 23 21 20 19 19 20 20 21 21 20 22 24 26 28 28 27
96 95 96 96 95 95 95 95 96 96 96 96 95 95 95 94 88 76 63 54 41 36 33 29 27 26 26 25 23 20 20 20 20 21 22 23 25 26 28 28 27 28 30

GFSGL_850_rhum_135.txt.gz
RH
59 53 44 37 42 48 62 65 73 81 88 87 83 96 94 94 90 91 99 91 92 93 91 85 84 86 94 99 100 100 99 98 100 93 88 78 78 86 88 82 79 86 88
50 50 45 43 41 41 45 52 67 76 83 89 92 99 96 95 88 91 91 92 93 92 85 86 84 91 94 100 100 100 100 100 98 90 91 89 90 96 94 86 89 93 96
47 40 34 31 35 41 41 42 49 69 73 76 94 90 100 100 94 85 88 93 92 88 87 96 94 98 100 100 100 100 100 100 100 92 85 92 90 100 100 100 100 100 100
54 51 45 40 36 32 40 42 46 52 74 74 76 88 91 97 98 97 83 88 92 92 98 98 98 98 99 99 99 100 100 100 99 100 96 90 92 99 100 100 100 100 100
61 63 54 47 43 41 41 44 44 48 55 87 93 96 94 97 99 100 95 89 93 99 98 98 100 100 99 99 100 100 100 100 100 100 100 96 98 100 98 98 100 99 100
67 64 59 54 50 49 47 44 43 46 53 73 99 100 100 88 98 99 100 94 82 86 94 91 97 100 100 99 98 100 100 98 98 100 100 94 92 99 99 98 99 100 100
65 63 62 62 58 53 54 52 48 48 56 65 86 100 99 98 98 100 100 97 85 81 89 96 99 99 100 100 100 100 100 100 93 88 89 89 89 91 96 98 100 99 97
66 63 61 63 58 60 62 61 59 56 63 69 84 94 98 98 100 81 100 97 84 85 94 99 100 99 99 100 100 99 99 100 99 100 97 89 84 88 94 90 94 100 100
66 66 67 66 67 70 66 66 69 69 71 74 76 87 89 99 100 94 100 98 94 96 99 100 100 100 100 100 100 100 100 100 99 100 100 100 100 100 100 99 100 100 100
73 74 72 73 74 75 73 71 75 74 75 83 74 86 99 99 99 82 86 99 100 96 94 96 100 100 100 98 99 100 100 100 100 100 100 100 100 100 100 100 96 97 99
77 77 76 78 77 77 81 77 74 76 78 89 80 85 99 99 100 99 85 97 98 90 88 96 99 100 99 100 99 100 99 100 100 100 100 100 98 100 100 100 100 99 99
76 78 77 77 78 78 82 79 80 84 84 95 88 88 98 100 99 100 100 100 100 100 98 98 100 97 92 95 100 100 100 100 100 100 100 100 100 100 100 100 100 100 100
75 77 78 78 83 84 86 86 86 88 95 96 96 98 97 99 100 100 91 100 100 100 100 99 100 99 97 99 100 100 100 100 100 100 100 100 100 100 100 99 99 100 100
76 78 80 83 83 86 90 91 87 89 91 93 100 98 98 99 99 100 100 100 100 100 99 99 100 100 98 97 99 100 100 100 100 100 100 100 100 98 99 100 99 98 98
84 86 86 88 92 93 97 96 90 88 88 92 99 100 100 99 100 100 100 100 100 100 100 99 100 100 100 100 99 100 100 100 100 100 100 100 100 100 98 98 98 95 77
88 88 93 95 98 99 98 91 92 87 79 82 98 100 100 100 100 100 100 99 99 100 100 100 100 100 100 99 100 100 100 100 100 100 100 100 99 97 95 82 66 20 10
94 94 97 97 96 97 96 95 92 89 90 87 92 99 100 100 100 100 99 99 98 100 100 100 100 100 100 100 100 100 100 100 100 100 99 94 94 95 68 10 9 8 10
93 96 98 96 95 96 97 100 96 89 93 98 100 99 98 99 99 99 100 99 99 100 100 100 100 100 100 100 100 100 100 100 96 94 94 90 84 80 64 18 12 9 9
95 96 97 96 96 96 97 97 96 91 94 99 98 95 98 99 99 99 97 98 98 97 100 100 100 100 99 100 100 99 98 96 96 95 95 92 54 15 11 11 11 11 10
93 95 96 96 96 95 95 96 96 95 93 93 93 94 94 95 95 96 96 96 96 96 95 95 95 95 96 96 96 96 96 96 95 76 24 14 13 11 10 12 13 12 15
93 93 94 96 96 95 95 96 96 96 95 95 95 97 96 95 95 95 96 96 96 96 96 96 96 96 96 96 95 96 95 76 24 14 14 14 15 15 16 16 16 18 17
94 95 95 96 96 95 95 96 96 95 95 95 96 96 96 96 96 96 96 96 96 96 96 96 96 96 96 95 94 69 20 16 16 16 15 16 16 16 17 17 17 17 17
94 96 95 95 96 96 95 96 95 95 96 96 96 96 96 96 96 96 95 95 96 96 96 96 96 85 50 21 19 15 12 14 14 13 13 14 16 16 18 18 19 19 20
96 96 97 95 95 95 96 96 95 96 96 96 96 96 96 96 96 96 96 96 96 96 95 79 40 25 20 19 19 19 17 16 18 19 18 17 17 19 19 20 21 21 21
96 96 96 97 97 96 96 96 96 96 96 96 96 96 96 96 96 96 96 96 93 62 43 44 46 33 23 21 20 19 17 18 20 20 21 21 20 20 21 22 21 22 23
96 96 96 96 97 97 96 96 96 96 96 96 96 96 96 96 96 96 96 95 94 74 44 36 33 27 23 23 22 20 20 22 22 22 21 21 21 20 20 21 22 25 27

GFSGL_850_rhum_138.txt.gz
RH
52 48 43 40 40 46 47 48 61 70 82 84 83 84 86 89 90 87 85 88 88 90 95 94 96 90 97 100 80 98 100 100 98 99 95 94 93 88 82 86 86 74 94
42 37 32 31 33 42 46 46 46 48 66 81 86 87 86 86 90 87 93 88 95 96 96 97 84 90 93 85 97 98 100 100 100 99 94 95 99 91 90 85 88 79 87
50 46 42 38 36 34 37 44 48 49 50 65 81 92 95 99 100 97 92 91 94 97 100 96 91 96 83 79 97 100 98 100 100 98 98 96 100 100 95 96 95 89 91
55 52 47 46 46 46 46 43 43 46 45 52 56 76 87 97 98 99 100 99 92 94 95 94 94 84 80 86 98 100 100 100 100 100 100 100 100 100 100 93 100 100 100
59 56 56 54 54 56 56 55 53 48 45 45 49 58 82 100 100 99 100 99 96 89 88 83 90 89 88 91 100 99 100 100 100 100 100 99 100 100 98 98 100 100 100
65 62 56 53 52 56 60 64 55 51 47 46 53 56 67 97 99 100 100 100 100 98 96 99 100 98 100 100 99 99 99 100 100 99 100 99 98 98 100 98 98 99 100
71 63 57 55 54 57 58 60 56 55 53 54 57 64 71 89 98 100 100 100 99 100 99 94 89 94 99 99 99 100 99 99 98 98 98 99 99 97 94 100 98 93 98
67 69 68 66 65 67 68 70 64 60 57 58 62 64 64 75 91 99 99 100 100 99 100 100 86 91 98 95 99 100 100 100 99 99 99 98 97 98 94 90 89 97 100
76 76 76 75 74 69 65 61 65 65 67 67 66 69 69 62 75 94 95 100 100 99 84 98 89 98 100 100 98 100 100 100 98 100 100 100 100 100 100 100 99 100 100
72 72 73 74 74 74 70 65 68 74 76 71 65 73 76 67 73 92 100 98 98 100 77 88 99 90 99 94 99 100 100 100 96 100 100 100 100 100 100 100 95 98 99
73 73 74 74 76 77 75 74 76 80 81 79 74 71 76 75 86 98 100 100 99 100 99 98 100 100 97 99 98 100 99 99 100 100 100 100 100 100 100 100 100 100 100
72 72 75 79 80 84 86 86 84 86 84 81 78 74 79 78 91 97 99 99 100 99 100 100 100 99 91 97 100 100 100 100 100 100 100 100 100 100 100 100 100 100 100
76 78 80 78 79 86 90 91 89 84 82 78 77 80 79 85 98 98 99 100 100 100 100 100 99 100 99 100 100 98 99 100 100 100 100 100 100 100 100 99 99 100 100
76 76 77 79 79 80 83 88 88 85 79 77 73 77 90 99 100 99 99 100 100 100 100 98 100 100 100 100 99 97 99 99 99 100 100 100 100 100 100 99 100 100 100
85 84 81 80 81 80 82 91 93 90 90 97 85 82 99 99 100 99 99 100 100 100 100 100 100 100 100 100 100 100 99 100 99 100 100 100 100 100 100 99 100 99 99
87 88 89 88 84 83 85 78 91 94 91 92 90 100 100 100 100 99 99 100 100 100 100 100 100 100 100 100 99 99 100 100 100 100 100 100 100 100 99 98 98 98 98
87 86 82 81 81 86 90 92 89 87 95 96 94 98 100 100 100 100 100 100 100 100 100 99 99 100 100 100 100 100 100 100 100 100 100 100 100 99 98 97 98 97 96
84 83 82 83 87 92 93 93 94 94 94 94 96 97 97 98 100 100 100 100 100 100 100 100 100 99 100 100 100 100 100 100 100 100 100 97 97 96 96 68 32 14 10
86 84 88 91 92 95 96 95 95 95 95 95 92 91 95 97 96 96 96 97 96 96 97 97 97 99 100 100 100 100 100 100 100 98 97 96 96 82 56 52 27 10 10
88 90 90 93 93 92 95 95 95 95 95 95 95 95 96 96 96 96 96 96 96 96 96 96 96 96 95 96 97 98 97 98 97 96 95 95 95 94 59 20 11 9 10
91 91 91 91 93 95 95 95 96 96 96 95 95 96 96 96 96 96 96 96 96 96 96 96 96 96 96 95 95 95 96 95 96 95 94 74 26 14 13 13 13 13 13
94 94 93 93 94 95 95 96 96 96 96 96 96 96 96 96 96 96 96 96 96 96 96 96 95 96 96 96 96 96 95 95 95 86 48 19 16 14 14 14 15 16 16
95 96 95 95 94 96 96 95 95 95 96 96 96 96 96 96 96 96 96 96 96 96 96 96 96 96 96 95 96 88 56 29 20 16 13 15 15 14 15 15 16 16 18
96 96 96 95 95 94 95 96 95 95 96 96 96 96 96 96 96 96 96 96 97 96 97 96 96 94 79 53 33 25 21 19 19 17 15 14 14 15 16 16 18 19 18
95 96 96 95 95 95 96 96 96 96 96 96 96 96 96 95 96 96 96 96 96 96 96 95 95 91 46 34 56 81 93 92 68 25 18 17 16 18 18 18 19 20 21
96 96 96 96 96 96 96 96 96 96 96 96 96 96 96 96 96 96 96 96 95 96 96 96 94 95 95 95 84 39 24 21 20 21 19 19 18 19 20 20 21 23 24

GFSGL_850_rhum_141.txt.gz
RH
61 52 44 43 40 38 41 45 55 62 68 70 84 87 90 96 98 96 93 91 94 89 92 98 99 100 99 91 96 98 98 100 96 96 92 84 89 86 93 96 88 76 81
64 46 36 32 30 25 30 40 43 43 46 49 61 78 87 96 98 100 100 98 96 95 92 99 99 100 100 98 98 90 98 99 100 100 97 96 95 94 94 100 91 89 82
66 54 46 39 37 35 31 33 29 34 41 45 49 59 77 89 98 100 100 100 99 98 92 100 96 100 100 100 99 89 96 96 98 100 98 100 99 100 100 100 100 98 92
66 52 48 44 41 42 42 37 40 38 33 40 47 50 57 74 87 99 100 100 100 100 99 100 99 99 99 100 97 91 85 87 100 100 100 100 99 99 100 100 100 100 100
76 61 57 54 52 53 51 50 47 48 48 49 47 49 50 53 70 100 99 99 100 99 94 99 99 100 98 99 90 78 80 98 100 100 98 100 99 100 98 99 100 100 100
79 74 64 58 55 52 53 51 52 50 52 53 57 53 50 56 70 86 98 99 100 100 99 98 88 97 99 96 89 87 93 100 100 99 99 98 98 100 100 100 100 100 100
81 73 63 57 58 56 57 54 53 52 56 60 60 58 52 54 63 79 89 92 97 98 99 99 99 96 96 98 100 100 99 100 99 98 100 98 99 97 99 100 100 100 99
87 82 74 66 65 65 62 58 56 58 63 64 62 61 54 50 58 68 89 96 97 99 98 100 99 96 99 99 99 99 99 99 99 98 98 96 91 99 99 99 96 100 100
79 77 72 69 68 69 67 66 65 62 63 66 68 63 61 51 57 62 68 86 99 97 99 97 100 93 77 100 100 98 98 95 99 100 100 97 96 99 100 100 100 100 100
76 77 77 74 73 70 71 72 71 72 69 70 71 71 69 60 58 62 70 74 80 90 87 97 100 99 100 96 99 98 97 86 93 99 100 100 100 100 100 99 100 100 100
80 80 76 71 71 72 72 72 72 72 73 72 73 73 77 75 64 68 72 82 98 99 99 94 100 99 100 100 100 100 96 90 100 100 100 100 100 100 100 100 100 100 100
80 78 74 75 75 77 79 77 75 77 76 75 75 74 72 74 73 71 78 87 94 99 99 99 100 100 100 100 100 100 99 100 100 100 100 100 100 100 100 100 100 100 100
77 76 75 73 72 74 77 82 84 83 82 84 83 76 72 70 71 79 92 94 98 99 99 100 100 98 100 100 100 100 100 100 100 100 100 99 99 100 100 100 100 100 100
80 76 73 71 70 72 75 84 83 92 95 100 97 89 78 72 82 100 100 97 96 99 99 100 99 100 100 93 99 99 100 100 100 100 100 100 100 100 100 100 100 100 100
76 76 72 69 70 69 69 84 88 92 100 100 100 100 100 99 100 100 100 99 97 98 100 100 100 100 100 100 100 100 100 100 100 100 100 99 100 100 100 100 100 100 99
79 76 78 76 77 78 76 68 80 89 93 95 94 100 97 100 100 100 100 100 99 100 100 100 100 99 100 100 100 100 100 100 100 100 99 100 100 100 100 100 100 99 99
91 88 86 85 82 84 86 86 77 69 84 90 87 90 95 99 98 98 99 97 99 100 100 100 100 100 100 100 100 100 100 100 100 100 99 100 100 100 100 100 99 98 98
88 87 85 86 83 84 86 89 89 89 87 82 82 87 87 90 97 97 95 94 93 95 100 100 100 100 100 99 98 100 100 100 100 100 100 100 100 100 100 98 97 97 97
89 86 85 85 83 82 79 80 85 86 90 89 82 76 79 81 85 90 90 91 93 96 96 98 98 98 96 96 98 100 100 100 100 100 100 100 100 98 97 97 96 96 95
88 88 87 85 84 83 84 83 84 87 90 94 91 88 88 90 86 92 94 95 96 96 96 96 97 97 96 96 96 96 98 100 99 100 100 100 98 97 97 92 58 28 23
92 90 90 89 88 89 90 91 91 94 91 98 99 99 99 96 95 95 96 96 96 96 96 96 96 96 96 96 96 96 96 95 96 95 96 96 95 94 95 93 80 50 21
94 93 92 93 92 92 93 94 94 95 95 96 96 100 100 96 96 96 96 96 96 96 96 96 95 96 96 96 96 96 96 95 95 96 96 96 95 93 65 21 15 14 13
92 93 93 94 94 94 94 94 94 95 95 95 93 96 96 96 96 96 96 96 96 96 96 96 96 96 96 95 96 96 96 96 96 95 94 76 27 16 16 30 37 18 15
94 93 94 95 95 94 95 95 95 94 95 96 94 96 96 96 96 96 96 96 96 96 97 96 96 96 97 96 96 96 96 88 68 38 28 40 76 73 28 16 15 15 17
94 94 94 94 94 95 95 95 95 95 95 96 96 96 96 96 96 96 96 96 96 96 96 96 96 96 95 95 95 94 94 94 94 90 83 80 66 55 52 45 18 17 18
95 95 94 95 96 96 96 96 96 96 95 96 96 96 96 96 96 96 96 96 96 96 95 95 96 96 96 96 96 96 96 95 94 91 90 74 34 17 16 15 16 17 18

GFSGL_850_rhum_144.txt.gz
RH
95 100 89 92 78 72 72 69 69 70 77 74 78 84 80 91 97 100 100 99 99 100 100 100 98 100 98 98 100 99 100 99 96 89 99 98 75 72 76 77 83 96 88
99 99 83 95 89 88 68 47 47 46 48 51 55 55 66 89 99 99 97 100 98 99 98 100 99 100 99 99 100 99 100 100 98 96 98 97 85 85 85 86 87 93 99
97 93 92 87 74 86 72 47 41 33 32 42 43 49 52 68 82 99 94 99 98 99 99 98 99 100 99 100 99 99 99 100 99 98 100 99 94 88 88 88 89 96 100
98 100 91 74 68 66 88 52 58 34 35 40 40 44 47 47 52 80 99 94 100 98 99 98 100 100 98 97 99 98 99 100 100 100 99 100 92 94 99 99 93 98 100
97 100 98 80 57 55 56 52 49 47 46 45 41 38 34 38 56 57 60 71 87 98 98 100 99 99 97 100 100 99 100 100 96 100 98 94 98 98 93 94 97 99 100
96 85 76 69 66 68 55 51 50 48 49 52 50 46 44 49 50 61 65 60 62 85 87 99 99 99 93 99 99 98 100 100 98 95 83 90 98 95 91 98 100 100 99
86 91 96 78 64 59 57 58 55 51 51 55 54 51 48 47 52 53 56 60 63 68 91 100 90 98 98 79 100 100 99 100 90 81 80 83 95 92 98 100 98 99 100
88 91 88 77 65 58 58 60 58 56 54 52 53 54 54 53 54 55 53 56 61 71 78 91 97 97 94 88 98 100 100 100 98 96 90 96 96 97 96 100 95 100 100
100 100 100 98 81 66 59 61 60 63 64 55 56 53 56 59 64 64 59 57 58 61 72 88 98 94 98 99 100 100 100 98 99 94 100 99 99 100 100 100 99 100 100
100 100 100 99 94 85 67 64 72 60 58 59 58 60 61 64 67 70 75 67 58 64 61 71 95 93 97 100 100 99 100 85 100 99 99 100 100 99 98 97 100 100 100
100 100 98 99 94 100 97 98 93 87 88 77 68 66 67 69 70 71 78 80 72 63 67 64 78 97 96 99 100 100 93 82 100 99 100 100 100 99 99 99 99 100 100
99 94 81 91 97 99 100 100 99 98 98 98 90 80 73 68 70 70 72 85 93 91 75 77 78 96 98 95 99 100 100 100 100 100 100 99 100 99 98 100 100 100 100
100 97 85 80 82 96 95 99 100 99 100 100 100 98 82 68 70 78 79 93 96 98 98 94 94 95 96 95 97 97 100 100 100 100 99 100 99 99 99 100 100 100 100
97 93 98 97 77 89 100 100 100 97 96 100 100 100 100 94 90 92 96 99 100 99 98 99 100 98 100 99 99 100 100 100 100 100 93 100 100 100 100 100 100 100 100
100 100 100 100 100 100 100 100 100 100 95 100 100 97 100 100 97 94 98 100 100 100 99 100 100 99 100 100 99 100 100 100 100 100 99 100 100 100 100 100 100 100 100
100 100 100 100 100 100 100 97 100 94 78 82 85 88 83 84 86 90 94 96 97 99 100 100 99 99 100 100 100 99 100 100 97 96 100 100 100 100 100 100 100 100 100
85 94 96 100 96 100 100 100 99 91 100 100 99 77 77 78 75 78 80 89 88 91 96 98 100 100 100 100 100 99 99 100 100 100 100 100 100 100 100 100 100 100 100
87 93 92 98 98 100 100 100 100 100 100 100 100 93 76 79 93 84 77 81 100 100 93 96 96 99 100 100 100 100 100 100 100 98 100 100 100 100 100 100 100 100 99
100 100 92 100 100 100 100 100 100 100 100 100 100 100 78 87 100 100 99 100 100 100 100 97 96 95 97 100 100 96 97 98 99 99 100 99 100 100 100 100 100 100 99
100 100 100 100 100 100 100 100 100 100 100 100 100 100 92 100 100 100 100 100 100 100 100 96 96 96 95 97 100 96 96 95 96 96 96 97 99 100 100 97 98 97 97
100 100 100 100 100 100 100 100 100 100 100 100 100 100 91 100 100 100 100 100 100 100 100 98 96 96 96 96 99 100 97 95 96 96 95 95 96 96 97 96 96 95 95
100 100 100 100 100 100 100 100 100 100 100 100 100 100 95 100 100 100 100 96 96 96 99 99 99 98 97 96 98 97 96 95 96 96 95 95 95 95 96 96 96 96 95
100 100 100 100 100 100 100 100 100 100 100 100 100 100 100 100 97 97 98 96 96 96 96 96 96 97 97 96 98 97 96 96 96 96 96 96 95 95 96 95 86 54 32
100 100 100 100 100 100 100 100 100 100 100 100 100 100 100 100 97 97 97 97 96 96 96 97 96 96 96 96 96 96 96 96 96 96 96 96 94 77 38 42 74 92 84
100 100 100 100 100 100 100 100 100 100 100 100 100 100 98 98 98 96 97 96 96 96 96 96 96 97 97 96 96 96 97 96 94 89 86 91 92 95 92 68 38 47 71
100 100 100 100 100 100 100 100 100 100 100 100 98 98 96 96 97 97 96 96 96 96 96 96 96 96 96 95 95 96 96 96 95 95 95 94 94 94 95 94 81 42 20

GFSGL_850_rhum_147.txt.gz
RH
99 98 100 91 91 100 99 100 100 99 100 99 98 86 80 97 92 88 82 96 95 98 99 97 93 98 98 100 100 100 98 95 99 94 92 94 85 74 84 79 80 85 90
99 98 99 100 96 93 99 100 100 100 88 93 92 82 76 82 88 96 96 100 98 100 98 100 99 100 100 99 100 99 99 98 100 100 94 93 100 96 82 82 76 85 82
96 99 96 100 100 99 96 100 100 99 99 91 88 61 59 66 89 100 94 99 100 100 98 99 98 99 100 99 100 99 99 100 100 100 100 99 100 100 94 94 82 86 87
96 98 94 98 98 99 100 83 92 96 94 82 78 74 69 71 80 81 79 84 98 98 100 98 95 98 99 98 100 99 100 100 100 100 100 99 99 98 98 93 91 88 89
96 99 96 98 94 94 87 86 77 78 92 82 90 79 71 60 80 57 53 57 66 77 89 94 100 84 99 94 99 99 100 100 100 100 100 99 99 99 98 93 87 90 90
96 99 100 100 99 99 99 98 91 92 91 81 98 84 74 97 68 72 61 59 54 54 55 64 90 97 92 98 97 98 100 100 100 100 100 99 99 94 99 99 85 98 99
100 99 99 100 100 100 100 100 100 99 89 60 72 68 77 95 70 66 59 50 50 55 58 69 81 88 97 100 91 96 99 80 88 100 100 97 98 92 94 98 87 92 98
99 99 100 100 99 94 97 97 97 90 58 58 78 70 53 70 63 67 58 57 54 57 62 67 82 79 89 100 100 99 100 99 99 100 100 98 93 81 88 89 94 98 99
100 100 100 99 97 96 97 100 100 99 93 86 85 65 54 65 89 70 64 62 58 56 57 58 66 68 77 91 100 99 100 97 91 100 99 100 96 100 100 99 99 100 100
100 100 99 98 98 95 98 99 99 94 97 99 98 95 99 100 84 69 70 67 62 62 52 50 53 64 68 86 100 100 99 96 94 93 79 100 100 100 98 94 98 100 100
100 100 100 100 100 96 100 100 100 100 96 96 95 96 99 96 89 79 77 81 84 68 62 53 48 52 58 68 95 100 99 99 97 99 94 92 100 100 99 97 100 100 99
100 100 100 100 100 100 100 100 100 100 99 97 78 70 84 83 97 90 83 82 93 97 82 70 60 54 56 59 75 98 100 100 100 100 100 100 99 100 98 100 100 100 100
100 100 100 100 100 100 100 100 100 100 100 100 100 100 95 80 91 77 68 74 92 100 100 95 87 76 72 67 74 88 100 100 100 100 100 99 100 100 100 100 100 100 100
100 100 100 100 100 100 100 100 100 100 100 100 100 100 100 100 97 65 69 74 82 89 93 93 92 90 88 91 98 96 99 100 100 100 100 99 100 100 99 100 100 100 100
100 100 100 100 100 100 100 99 97 99 100 100 100 100 100 100 98 83 76 72 81 87 86 89 92 92 92 93 96 99 98 99 100 100 100 100 100 99 98 100 100 100 100
100 100 100 100 100 100 100 100 100 100 100 100 100 100 100 100 100 93 88 72 66 73 81 95 100 98 97 99 99 99 100 99 100 100 100 100 100 100 100 100 100 100 100
100 100 100 100 100 100 100 100 100 100 100 100 100 100 100 100 100 100 100 78 97 99 100 100 100 100 98 100 99 99 100 99 100 100 100 100 100 100 100 100 100 99 99
100 100 100 100 100 100 100 100 100 100 100 100 98 99 81 89 100 100 100 100 99 99 97 95 100 100 98 96 100 100 100 100 99 100 100 99 100 100 100 100 99 99 100
100 100 100 100 100 100 100 100 100 100 100 99 98 100 90 97 100 100 100 100 95 94 98 94 96 98 99 96 96 97 99 100 100 100 100 99 100 100 99 99 98 98 99
100 100 100 100 100 100 100 100 100 100 100 100 100 100 100 100 100 100 100 100 100 96 93 95 94 96 99 96 96 96 96 96 99 98 98 97 97 96 97 96 96 96 96
96 100 99 94 97 98 99 100 99 98 99 100 100 100 100 100 100 100 100 100 100 100 100 94 95 95 96 96 96 96 97 96 97 97 96 96 96 96 96 96 95 96 95
100 100 97 93 94 94 96 96 96 100 100 100 100 100 100 100 100 100 100 100 100 100 99 99 96 96 96 96 98 98 96 96 96 97 97 96 97 96 95 95 95 95 96
100 98 96 93 94 94 94 94 95 97 100 100 100 100 100 100 100 100 98 99 100 100 100 97 96 97 96 96 96 96 97 97 99 98 97 97 97 96 95 95 95 95 94
100 100 94 94 95 100 100 100 98 97 100 100 100 100 100 100 100 99 99 99 98 98 98 97 97 96 96 96 96 96 96 96 96 97 96 96 96 96 96 96 96 96 96
97 98 99 98 100 100 100 100 100 100 100 100 100 100 100 100 99 99 98 98 98 96 96 97 96 96 97 96 96 96 96 96 96 96 96 95 95 96 95 95 95 95 95
100 100 100 100 100 100 100 100 99 98 98 99 100 100 100 97 97 98 99 99 97 97 96 96 96 96 96 96 96 97 96 96 96 96 96 96 95 96 96 95 95 95 95

GFSGL_850_rhum_150.txt.gz
RH
96 99 93 96 100 100 98 96 96 98 97 100 100 100 99 96 78 77 70 81 73 66 74 85 90 80 68 74 71 48 51 93 100 86 91 71 97 92 90 93 92 92 90
94 99 95 97 98 98 100 100 83 98 99 96 100 99 100 100 100 100 99 99 96 91 94 99 96 98 91 91 96 91 99 96 93 89 87 99 92 83 93 100 100 100 96
95 99 99 97 96 98 99 100 99 87 99 100 98 99 98 99 100 100 99 99 99 100 100 100 87 96 93 95 93 98 94 96 98 95 94 100 90 96 100 96 97 100 100
96 97 99 97 96 97 98 99 100 99 96 95 96 99 98 100 100 98 99 100 100 97 94 90 97 96 98 99 90 89 100 98 99 99 100 98 96 92 99 96 94 93 96
98 95 96 98 96 97 96 99 99 100 99 100 94 92 100 96 94 88 78 68 61 68 84 88 89 92 99 99 100 92 94 99 95 94 97 98 95 98 98 98 99 99 100
95 96 96 95 96 93 98 93 96 100 100 94 78 98 100 98 100 78 64 54 51 52 54 58 69 87 90 96 100 100 100 100 100 99 100 96 97 99 100 99 100 100 100
93 94 94 94 96 96 97 96 96 90 91 86 84 98 87 100 100 79 69 65 58 60 58 58 57 63 66 70 88 99 99 98 100 100 100 99 98 98 99 100 100 100 98
93 93 99 97 94 93 93 95 100 96 100 98 99 100 100 100 100 89 62 68 69 61 64 62 61 59 63 70 76 74 86 95 99 97 100 100 96 91 99 99 99 100 97
90 95 97 98 98 99 99 98 98 99 97 100 100 100 100 100 100 78 68 65 61 56 60 63 65 57 59 62 61 64 70 90 98 98 100 100 98 99 96 100 100 100 100
91 96 98 99 99 100 99 100 100 100 100 98 91 100 100 99 96 77 72 80 88 67 62 65 66 64 62 55 55 64 68 73 86 93 100 99 100 100 98 91 100 100 99
95 99 100 100 100 100 99 100 100 100 92 89 92 93 96 95 100 89 75 70 78 75 79 71 69 69 66 70 73 75 78 71 73 99 98 99 99 100 100 98 74 100 100
99 100 100 100 100 100 100 100 100 100 97 87 80 73 68 71 88 94 61 59 65 73 73 77 80 77 72 79 78 75 80 84 82 87 100 98 98 100 99 99 91 93 100
100 100 100 100 100 100 100 97 98 99 100 100 100 96 78 67 64 57 52 53 55 58 63 68 70 72 79 79 82 85 83 84 93 100 100 100 99 100 100 100 100 100 100
100 100 100 100 100 100 100 98 97 99 99 100 99 99 99 89 80 63 57 54 52 54 55 52 59 70 80 85 84 84 86 92 100 100 100 100 100 99 99 100 100 100 100
100 100 100 100 100 100 100 99 97 96 98 96 96 95 100 94 86 95 100 83 70 82 72 72 85 99 100 92 87 89 100 99 99 99 100 100 100 100 100 100 100 100 100
100 96 97 100 99 97 95 98 96 94 95 96 96 98 98 100 100 100 100 99 98 97 98 99 99 100 100 100 95 91 99 99 99 99 98 99 99 100 100 100 100 100 100
98 94 93 97 96 94 95 94 96 97 96 96 97 100 100 100 100 100 100 100 95 94 96 90 96 99 100 100 95 94 95 100 99 100 100 100 99 99 100 100 100 100 100
95 94 93 96 96 95 97 95 95 96 96 97 97 100 86 100 100 100 100 93 85 86 94 98 96 91 100 100 99 92 92 95 99 100 100 100 100 100 99 100 100 100 100
95 95 96 96 95 96 97 97 97 96 95 97 97 95 86 98 100 100 98 98 100 99 93 90 99 97 92 98 99 94 93 93 96 97 99 100 100 100 100 100 100 99 100
94 93 93 94 94 95 96 95 95 96 96 97 97 100 97 99 95 99 98 98 99 100 100 92 94 94 98 97 97 95 92 93 96 94 97 98 100 99 100 100 99 97 97
95 91 92 90 92 92 93 93 93 93 93 98 99 100 100 100 100 100 100 100 100 100 100 100 98 96 95 96 98 99 92 93 95 95 95 96 97 98 97 98 97 96 96
94 92 91 93 92 91 92 91 92 93 94 95 97 100 100 100 100 100 98 99 100 100 99 99 97 99 99 98 100 99 96 95 94 95 96 95 96 96 96 96 97 96 96
92 91 91 91 94 92 94 93 93 92 94 97 98 100 100 100 100 100 98 99 99 99 97 94 94 96 98 95 96 97 96 96 95 96 96 96 96 96 97 96 96 96 96
94 93 93 94 95 99 96 96 95 94 94 96 98 100 100 100 100 100 99 98 99 99 97 97 99 100 98 96 96 96 96 96 96 95 95 96 96 96 96 96 96 96 96
95 93 95 97 96 98 97 97 96 95 96 98 100 100 100 100 96 97 98 99 99 98 98 99 99 98 98 96 96 96 96 96 96 95 96 95 95 96 96 96 96 96 96
94 94 97 97 96 98 96 97 99 97 100 100 97 99 97 97 98 98 98 97 98 99 98 99 100 99 96 95 96 96 96 96 96 96 96 96 96 96 96 95 95 95 95